Volver al catálogo

FENGYUN 1C DEB

LostPO
NORAD 32336·DEBRIS·🇨🇳 China

Lanzado May 10, 1999 desde Taiyuan Satellite Launch Center

Loading…

Próximos Pases (próximas 24 horas)

TLE

ObsoletoSource: Space-Track

Época: Apr 26, 2011, 10:22 UTC

1 32336U 99025CYD 11116.43215084  .00002109  00000-0  67324-3 0  9996
2 32336  98.9945 205.8822 0139046  32.0357 328.7671 14.35469826202863

Sigue FENGYUN 1C DEB en tiempo real con AllMySat

Download on the App Store